LiveATC.Net - Listen to live air traffic control over the Internet!


ICAO: N40  IATA: N40   Airport: Sky Manor Airport
City: Pittstown   State/Province: New Jersey
Country: United States   Continent: North America
KSMQ METAR Weather: KSMQ 171753Z AUTO 09006KT 9SM OVC019 24/20 A3020 RMK AO2 SLP224 T02390200 10250 20217 58016
N40 Flight Activity (FlightAware)
N40 Webcam:  (Airport Webcams) 
N40 Airport Info   (iFlightPlanner)
N40 VFR Sectional Chart   (iFlightPlanner) 
N40 IFR Low Chart   (iFlightPlanner) 

N40 CTAF/Unicom
Feed Status: UP   Listeners: 0
Listen in your browser - HTML5 player (in browser, HTML5)
Click here to listen with your own player (launches your MP3 player)
Archive Access: N40 CTAF/Unicom
FacilityFrequency
N40 CTAF/UNICOM122.975
Feed sponsored by: Sky Manor Airport

NOTICE

Unauthorized use prohibited. See LiveATC.net Terms of Service


Airport/ARTCC Code
Frequency Search
(e.g., 124.400, 128.75)
Site-wide search
 


Browse Feeds
Top 50 Feeds
HF Oceanic Feeds
Coverage Map
Bad Weather Areas

LiveATC FAQ
Offer LiveATC feed
Contact LiveATC.net
Press Inquiries

LiveATC on iPhone
LiveATC on Android

Windows Phone
Windows 8/10

LiveATC Mobile
(Mobile browser)

ATC Audio Archives
Interesting Recordings

LiveATC Forums


Home Page
About LiveATC.net
Make a Donation
Terms of Use
Privacy Policy

Canadian Air Freqs

AIRMETs/SIGMETs

FAA Airport Status
NAS Status
Arrival Demand


Server Software By:
Icecast.org
Liquidsoap